DW9004 Weather Reports


Display with metric or nautical units.
time (UTC)temp
F
wind
direction
speed
MPH
gust
MPH
rain 1hr
in
rain 24hr
in
rain mn
in
humidity
%
barometer
mb
20260906214533 62 256 11.0 21.0 0.00 0.00 0.00 67 1010.7
20260906213024 62 310 13.0 20.0 0.00 0.00 0.00 67 1010.7
20260906211533 62 290 12.0 19.0 0.00 0.00 0.00 67 1010.7
20260906210012 62 252 11.0 20.0 0.00 0.00 0.00 67 1010.8
20260906204557 62 265 10.0 18.0 0.00 0.00 0.00 68 1010.8
20260906203100 62 246 13.0 18.0 0.00 0.00 0.00 67 1010.8
20260906201558 63 258 9.0 17.0 0.00 0.00 0.00 68 1010.9
20260906200046 62 275 12.0 19.0 0.00 0.00 0.00 68 1010.9
20260906194539 62 238 11.0 17.0 0.00 0.00 0.00 69 1010.8
20260906193057 61 258 12.0 18.0 0.00 0.00 0.00 70 1010.8
20260906191537 60 224 11.0 19.0 0.00 0.00 0.00 73 1011.0
20260906190029 59 268 13.0 21.0 0.00 0.00 0.00 75 1011.3
20260906183006 60 245 13.0 21.0 0.00 0.00 0.00 76 1011.2
20260906181510 59 264 11.0 22.0 0.00 0.00 0.00 78 1011.2
20260906180100 58 275 13.0 20.0 0.00 0.00 0.00 78 1011.4
20260906174553 56 251 11.0 16.0 0.00 0.00 0.00 86 1011.3
20260906173048 53 255 8.0 18.0 0.00 0.00 0.00 96 1011.2
20260906171555 52 256 7.0 13.0 0.00 0.00 0.00 96 1011.1
20260906170043 52 290 6.0 13.0 0.00 0.00 0.00 96 1011.4
20260906164518 52 297 3.0 8.0 0.00 0.00 0.00 96 1011.5
20260906163013 52 297 5.0 9.0 0.00 0.00 0.00 95 1011.6
20260906161557 52 287 3.0 7.0 0.00 0.00 0.00 95 1011.9
20260906160054 53 275 2.0 8.0 0.00 0.00 0.00 94 1012.0
20260906154549 53 270 7.0 17.0 0.00 0.00 0.00 91 1012.1
20260906153046 0 0.0 0.0 0.00 0.00 0.00 1012.2
20260906151546 0 0.0 0.0 0.00 0.00 0.00 1011.7
20260906150042 0 0.0 0.0 0.00 0.00 0.00 1011.3
20260906144539 0 0.0 0.0 0.00 0.00 0.00 1011.5
20260906143033 0 0.0 0.0 0.00 0.00 0.00 1011.4
20260906141513 0 0.0 0.0 0.00 0.00 0.00 1011.2
20260906140009 0 0.0 0.0 0.00 0.00 0.00 1011.1
20260906134504 0 0.0 0.0 0.00 0.00 0.00 1010.9
20260906133119 0 0.0 0.0 0.00 0.00 0.00 1010.7
20260906131557 0 0.0 0.0 0.00 0.00 0.00 1010.7
20260906130103 0 0.0 0.0 0.00 0.00 0.00 1010.9
20260906124548 0 0.0 0.0 0.00 0.00 0.00 1011.0
20260906123144 0 0.0 0.0 0.00 0.00 0.00 1011.1
20260906121525 52 133 2.0 4.0 0.00 0.00 0.00 84 1011.1
20260906120023 53 251 0.0 4.0 0.00 0.00 0.00 84 1011.3
20260906114528 53 290 1.0 5.0 0.00 0.00 0.00 82 1011.1
20260906113010 53 100 2.0 4.0 0.00 0.00 0.00 82 1011.3
20260906111509 53 275 0.0 3.0 0.00 0.00 0.00 82 1010.9
20260906110011 53 77 0.0 1.0 0.00 0.00 0.00 85 1011.1
20260906104508 53 262 0.0 4.0 0.00 0.00 0.00 86 1011.1
20260906103008 53 224 3.0 4.0 0.00 0.00 0.00 84 1011.0
20260906101506 52 224 2.0 3.0 0.00 0.00 0.00 85 1011.1
20260906100010 52 235 2.0 4.0 0.00 0.00 0.00 87 1011.2
20260906094600 52 303 2.0 5.0 0.00 0.00 0.00 86 1011.1
20260906093105 53 332 1.0 5.0 0.00 0.00 0.00 85 1011.1
20260906091529 53 275 2.0 5.0 0.00 0.00 0.00 84 1011.1
20260906090032 55 256 1.0 3.0 0.00 0.00 0.00 78 1011.3
20260906084527 55 283 1.0 2.0 0.00 0.00 0.00 78 1011.5
20260906083041 56 146 1.0 3.0 0.00 0.00 0.00 72 1011.5
20260906081533 57 102 2.0 3.0 0.00 0.00 0.00 71 1011.6
20260906080032 56 158 1.0 4.0 0.00 0.00 0.00 75 1011.7
20260906074529 54 224 2.0 4.0 0.00 0.00 0.00 83 1011.9
20260906073026 55 324 2.0 4.0 0.00 0.00 0.00 81 1011.8
20260906071519 56 332 3.0 4.0 0.00 0.00 0.00 77 1011.9
20260906070019 57 138 0.0 3.0 0.00 0.00 0.00 78 1011.9
20260906064506 56 166 0.0 2.0 0.00 0.00 0.00 78 1012.0
20260906063004 57 112 1.0 3.0 0.00 0.00 0.00 77 1011.8
20260906054608 58 282 4.0 8.0 0.00 0.00 0.00 75 1011.6
20260906053055 59 256 2.0 6.0 0.00 0.00 0.00 72 1011.7
20260906051602 61 241 3.0 7.0 0.00 0.00 0.00 68 1011.8
20260906050101 60 263 3.0 9.0 0.00 0.00 0.00 70 1011.9
20260906044532 62 325 4.0 10.0 0.00 0.00 0.00 65 1012.0
20260906043034 62 263 4.0 11.0 0.00 0.00 0.00 65 1011.8
20260906041510 63 303 3.0 9.0 0.00 0.00 0.00 63 1011.8
20260906040017 64 270 6.0 11.0 0.00 0.00 0.00 63 1011.7
20260906034608 64 253 6.0 11.0 0.00 0.00 0.00 63 1011.7
20260906033053 64 258 3.0 9.0 0.00 0.00 0.00 61 1011.7
20260906031551 65 266 6.0 10.0 0.00 0.00 0.00 60 1011.5
20260906030050 65 270 6.0 10.0 0.00 0.00 0.00 59 1011.2
20260906024556 65 270 7.0 12.0 0.00 0.00 0.00 59 1011.3
20260906023047 65 266 6.0 11.0 0.00 0.00 0.00 59 1011.2
20260906021544 66 241 5.0 9.0 0.00 0.00 0.00 58 1011.2
20260906020040 68 252 5.0 11.0 0.00 0.00 0.00 56 1011.3
20260906014558 68 254 5.0 12.0 0.00 0.00 0.00 54 1011.3
20260906013039 69 272 4.0 8.0 0.00 0.00 0.00 53 1011.2
20260906011524 70 258 2.0 6.0 0.00 0.00 0.00 53 1011.2
20260906010026 71 258 2.0 4.0 0.00 0.00 0.00 50 1011.2
20260906004523 70 264 2.0 7.0 0.00 0.00 0.00 51 1011.2
20260906003020 71 282 1.0 7.0 0.00 0.00 0.00 51 1011.3
20260906001522 71 251 6.0 10.0 0.00 0.00 0.00 51 1011.4
20260906000017 70 270 3.0 8.0 0.00 0.00 0.00 54 1011.4
20260905234515 70 279 5.0 12.0 0.00 0.00 0.00 54 1011.5
20260905233059 70 259 4.0 10.0 0.00 0.00 0.00 55 1011.6
20260905231558 70 253 6.0 11.0 0.00 0.00 0.00 55 1011.6
20260905230157 69 263 7.0 13.0 0.00 0.00 0.00 57 1011.7
20260905224602 69 248 6.0 15.0 0.00 0.00 0.00 59 1011.7
20260905223049 67 267 2.0 11.0 0.00 0.00 0.00 63 1011.7
20260905221605 66 269 8.0 14.0 0.00 0.00 0.00 62 1011.9
20260905220038 68 284 7.0 13.0 0.00 0.00 0.00 60 1012.0